Flag for U.S.A. Weather past 2 weeks in Wilmington, Delaware, U.S.A.

Now
86 °F

Scattered clouds.


Feels Like: 87 °F
Forecast: 70 / 88 °F
Wind: 9 mph from Northwest

Location: New Castle County Airport

Current Time: Jul 31, 2015 at 2:13:37 PM

Latest Report: Jul 31, 2015 at 12:51 PM


Visibility: 10 mi

Pressure: 29.90 "Hg

Humidity: 46%

Dew point: 63 °F

Location of WilmingtonLocation

Historic Weather in Wilmington — Graph

°F

Wilmington temperature yesterday

Maximum temperature yesterday: 88 °F (at 1:51 PM)
Minimum temperature yesterday: 74 °F (at 3:57 PM)
Average temperature yesterday: 79 °F

Past Weeks' High & Low Weather Summary

 TemperatureHumidityPressure
High92 °F (Jul 19, 2:51 PM)97% (Jul 27, 5:51 AM)30.11 "Hg (Jul 27, 5:51 AM)
Low61 °F (Jul 24, 5:51 AM)32% (Jul 24, 12:51 PM)29.61 "Hg (Jul 21, 5:51 PM)
Average78 °F70%29.92 "Hg
* Reported Jul 16 12:51 PM — Jul 31 12:51 PM, Wilmington, Weather by CustomWeather, © 2015

Note: Actual official high and low records may vary slightly from our data, if they occured in-between our weather recording intervals... More about our weather records

Advertising

Wilmington weather history for previous 24 hours

 ConditionsComfort  
Time TempWeatherWind HumidityBarometerVisibility
12:51 PM
Fri, Jul 31
86 °FScattered clouds.9 mph46%29.90 "Hg10 mi
11:51 AM85 °FSunny.8 mph48%29.92 "Hg10 mi
10:51 AM82 °FSunny.12 mph53%29.92 "Hg10 mi
9:51 AM81 °FSunny.9 mph54%29.93 "Hg10 mi
8:51 AM77 °FSunny.8 mph64%29.93 "Hg10 mi
7:51 AM73 °FSunny.No wind76%29.92 "Hg10 mi
6:51 AM67 °FClear.5 mph87%29.90 "Hg10 mi
5:51 AM67 °FClear.5 mph85%29.90 "Hg10 mi
4:51 AM67 °FClear.5 mph90%29.89 "Hg10 mi
3:51 AM70 °FClear.3 mph84%29.89 "Hg10 mi
2:51 AM71 °FClear.8 mph87%29.88 "Hg10 mi
1:51 AM73 °FFog.6 mph97%29.88 "Hg5 mi
1:04 AM75 °FFog.7 mph96%29.89 "Hg3 mi
12:51 AM75 °FFog.5 mph96%29.88 "Hg2 mi
11:51 PM
Thu, Jul 30
76 °FFog.3 mph94%29.88 "Hg4 mi
10:51 PM76 °FFog.3 mph94%29.88 "Hg5 mi
9:51 PM77 °FClear.5 mph94%29.88 "Hg8 mi
8:51 PM77 °FSunny.3 mph90%29.86 "Hg10 mi
7:51 PM78 °FPartly sunny.6 mph87%29.85 "Hg10 mi
6:51 PM78 °FPassing clouds.6 mph87%29.83 "Hg10 mi
5:51 PM76 °FOvercast.8 mph91%29.83 "Hg10 mi
4:51 PM75 °FRain. Broken clouds.8 mph94%29.84 "Hg7 mi
3:57 PM74 °FStrong thunderstorms. Fog.15 mph94%29.87 "Hg1 mi
2:51 PM88 °FBroken clouds.13 mph63%29.85 "Hg10 mi
Weather by CustomWeather, © 2015

See weather overviewHow to use our weather pages